Skip Page Navigation
NASA JPL Caltech
NASA Logo - Jet Propulsion Laboratory + View the NASA Portal
+ Center for Near-Earth Object Studies
JPL Home Earth Solar System Stars & Galaxies Technology
JPL Solar System Dynamics
BODIES ORBITS EPHEMERIDES TOOLS PHYSICAL DATA DISCOVERY FAQ SITE MAP
JPL Small-Body Database Browser
Search: [ help ]  
266198 (2006 VQ170)
Classification: Main-belt Asteroid          SPK-ID: 2266198
Ephemeris | Orbit Diagram | Orbital Elements | Mission Design | Physical Parameters | Discovery Circumstances | Close-Approach Data ]

[ show orbit diagram ]
Orbital Elements at Epoch 2459000.5 (2020-May-31.0) TDB
Reference: JPL 12 (heliocentric ecliptic J2000)
 Element Value Uncertainty (1-sigma)   Units 
e .1060049039770863 5.2006e-08  
a 2.430415456255445 1.7705e-08 au
q 2.17277949919066 1.269e-07 au
i 2.296206661346576 4.9119e-06 deg
node 106.8456903410545 0.00022505 deg
peri 349.5257448217695 0.00023164 deg
M 206.9743239179437 5.5637e-05 deg
tp 2459588.775837338197
(2022-Jan-09.27583734)
0.00021649 TDB
period 1383.946190364741
3.79
1.5123e-05
4.14e-08
d
yr
n .2601257205709143 2.8425e-09 deg/d
Q 2.688051413320229 1.9582e-08 au
  Orbit Determination Parameters
   # obs. used (total)      180  
   data-arc span      8983 days (24.59 yr)  
   first obs. used      1994-10-06  
   last obs. used      2019-05-11  
   planetary ephem.      DE431  
   SB-pert. ephem.      SB431-N16  
   condition code      0  
   norm. resid. RMS      .64761  
   source      ORB  
   producer      Otto Matic  
   solution date      2019-May-30 08:50:38  

Additional Information
 Earth MOID = 1.18965 au 
 Jupiter MOID = 2.44098 au 
 T_jup = 3.499 
[ show covariance matrix ]

Ephemeris | Orbit Diagram | Orbital Elements | Mission Design | Physical Parameters | Discovery Circumstances | Close-Approach Data ]

Physical Parameter Table
Parameter Symbol Value Units Sigma Reference Notes
absolute magnitude H 17.5   n/a MPO433728  

266198 (2006 VQ170)          Discovered 2006-Nov-15 by Mt. Lemmon Survey at Mount Lemmon
Reference: 20110218/Numbers.arcLast Updated: 2011-02-22

[ show close-approach data ]
Ephemeris | Orbit Diagram | Orbital Elements | Mission Design | Physical Parameters | Discovery Circumstances | Close-Approach Data ]
ABOUT SSD CREDITS/AWARDS PRIVACY/COPYRIGHT GLOSSARY LINKS
FirstGov 2020-Aug-03 16:06 UT
(server date/time)  
NASA Home Page
Site Manager:   Ryan S. Park
Webmaster  Alan B. Chamberlin